Home   Weather   Mandurah   Past weeks

Flag for Australia Past Weather in Mandurah, Western Australia, Australia — Yesterday and Last 2 Weeks

Now
73 °F

Mild.


Feels Like: 77 °F
Forecast: 58 / 73 °F
Wind: 9 mph from West

Location: Mandurah Aws

Current Time: Apr 29, 2017 at 3:33:19 pm

Latest Report: Apr 29, 2017 at 2:00 pm


Visibility: N/A

Pressure: 30.16 "Hg

Humidity: 44%

Dew Point: 49 °F

Location of MandurahLocation

Past Weather in Mandurah — Graph

°F

Mandurah Temperature Yesterday

Maximum temperature yesterday: 74 °F (at 3:00 pm)
Minimum temperature yesterday: 58 °F (at 6:00 am)
Average temperature yesterday: 66 °F

High & Low Weather Summary for the Past Weeks

 TemperatureHumidityPressure
High79 °F (Apr 23, 3:00 pm)96% (Apr 19, 8:00 am)30.35 "Hg (Apr 19, 8:00 am)
Low56 °F (Apr 26, 6:00 am)38% (Apr 25, 2:00 pm)29.85 "Hg (Apr 18, 2:00 pm)
Average67 °F66%30.11 "Hg
* Reported Apr 14 2:00 pm — Apr 29 2:00 pm, Mandurah, Weather by CustomWeather, © 2017

Note: Actual official high and low records may vary slightly from our data, if they occured in-between our weather recording intervals... More about our weather records

Advertising

Mandurah Weather History for the Previous 24 Hours

Scroll right to see more
 ConditionsComfort  
Time TempWeatherWind HumidityBarometerVisibility
2:00 pm
Sat, Apr 29
73 °FMild.9 mph44%30.16 "HgN/A
12:00 pm75 °FMild.5 mph43%30.21 "HgN/A
11:00 am73 °FMild.5 mph44%30.23 "HgN/A
9:00 am64 °FMild.2 mph46%30.25 "HgN/A
8:00 am59 °FRefreshingly cool.1 mph55%30.24 "HgN/A
6:00 am57 °FCool.2 mph60%30.23 "HgN/A
5:00 am59 °FRefreshingly cool.3 mph58%30.24 "HgN/A
3:00 am59 °FRefreshingly cool.5 mph59%30.23 "HgN/A
2:00 am59 °FRefreshingly cool.5 mph59%30.23 "HgN/A
12:00 am61 °FCool.3 mph61%30.24 "HgN/A
11:00 pm
Fri, Apr 28
63 °FMild.2 mph60%30.25 "HgN/A
9:00 pm67 °FMild.3 mph56%30.25 "HgN/A
8:00 pm67 °FMild.3 mph63%30.25 "HgN/A
6:00 pm69 °FMild.6 mph54%30.23 "HgN/A
5:00 pm72 °FMild.8 mph45%30.22 "HgN/A
3:00 pm74 °FMild.9 mph41%30.22 "HgN/A
Weather by CustomWeather, © 2017

See weather overviewHow to use our weather pages